This demonstration page uses our WeatherBlox Daily Observations layout. Learn more.

Left ArrowRight Arrow

Hourly Observations for June 9, 2019

Temp ( °F °C ) Dew Point ( °F °C ) Humidity (%) Winds ( mph kmh ) Pressure ( in mb ) Visibility ( mi km ) Precip ( " mm )
12:51 am 00:51 Clear 74 23.3 19 -7.2 12 12 WNW 12 19 29.82 1010 10 16 0.00 0.00
1:51 am 01:51 Clear 70 21.1 17 -8.3 13 13 NNW 6 9 29.83 1010 10 16 0.00 0.00
2:51 am 02:51 Clear 70 21.1 16 -8.9 12 12 N 5 7 29.84 1010 10 16 0.00 0.00
3:51 am 03:51 Clear 65 18.3 19 -7.2 17 17 S 3 6 29.86 1011 10 16 0.00 0.00
4:51 am 04:51 Clear 59 15 18 -7.8 20 20 Calm 29.89 1012 10 16 0.00 0.00
5:51 am 05:51 Sunny 62 16.7 17 -8.3 17 17 E 5 7 29.91 1013 10 16 0.00 0.00
6:51 am 06:51 Sunny 71 21.7 20 -6.7 14 14 Calm 29.91 1013 10 16 0.00 0.00
7:51 am 07:51 Hazy 74 23.3 19 -7.2 12 12 VRB 3 6 29.93 1014 5 8 0.00 0.00
8:51 am 08:51 Sunny 80 26.7 20 -6.7 10 10 SSE 3 6 29.94 1014 10 16 0.00 0.00
9:51 am 09:51 Sunny 86 30 19 -7.2 8 8 Calm 29.93 1013 10 16 0.00 0.00
10:51 am 10:51 Sunny 91 32.8 16 -8.9 6 6 NW 6 9 29.92 1013 10 16 0.00 0.00
11:51 am 11:51 Sunny 94 34.4 16 -8.9 6 6 VRB 3 6 29.89 1012 10 16 0.00 0.00
12:51 pm 12:51 Sunny 96 35.6 14 -10 5 5 undefined N/A 29.87 1011 10 16 0.00 0.00
1:51 pm 13:51 Sunny 99 37.2 15 -9.4 5 5 VRB 5 7 29.85 1011 10 16 0.00 0.00
2:51 pm 14:51 Sunny 98 36.7 15 -9.4 5 5 W 6 9 29.83 1010 10 16 0.00 0.00
3:51 pm 15:51 Sunny 97 36.1 15 -9.4 5 5 W 10 17 29.83 1010 10 16 0.00 0.00
4:51 pm 16:51 Sunny 96 35.6 13 -10.6 5 5 W 7 11 29.83 1010 10 16 0.00 0.00
5:51 pm 17:51 Sunny 97 36.1 13 -10.6 4 4 W 10 17 29.82 1010 10 16 0.00 0.00
6:51 pm 18:51 Sunny 94 34.4 15 -9.4 5 5 WNW 9 15 29.82 1010 10 16 0.00 0.00
7:51 pm 19:51 Clear 88 31.1 12 -11.1 6 6 NW 7 11 29.83 1010 10 16 0.00 0.00
8:51 pm 20:51 Clear 86 30 11 -11.7 6 6 N 8 13 29.84 1011 10 16 0.00 0.00
9:51 pm 21:51 Clear 84 28.9 11 -11.7 6 6 SW 5 7 29.85 1011 10 16 0.00 0.00
10:51 pm 22:51 Clear 78 25.6 17 -8.3 10 10 E 5 7 29.86 1011 10 16 0.00 0.00
11:51 pm 23:51 Clear 78 25.6 16 -8.9 9 9 Calm 29.87 1012 10 16 0.00 0.00

Powered by AerisWeather